[[{"header":{"parameterUnit":"m.s-1","parameterCategory":1,"la1":30.2991,"la2":30.254,"lo1":-89.0895,"lo2":-89.0444,"dy":0.0017,"dx":0.0017,"nx":28,"ny":28,"refTime":"2025-03-11T21:00:00:Z","depth":0,"parameterNumber":2,"parameterNumberName":"U-component_of_WINDS"},"data":[0,0,0,0,0,0,0,0,0,0,0,0,0,0,0,0,0,0,0,0,0,0,0,0,0,0,0,0,0,0,0,0,0,0,0,0,0,0,0,0,0,0,0,0,0,0,0,0,0,0,0,0,0,0,0,0,0,0,1.4722,1.4723,0,1.4827,1.4828,1.4829,1.4863,1.4863,1.4862,1.4862,1.4971,1.4974,1.4977,0,0,0,0,0,0,0,0,0,0,0,0,0,1.4553,1.4556,1.4722,1.4723,1.4725,1.4827,1.4828,1.4829,1.4863,1.4863,1.4862,1.4861,1.4969,1.4973,1.4977,0,0,0,0,0,0,0,0,0,0,0,0,0,1.4639,1.4557,1.4722,1.4754,1.4758,1.4826,1.4828,1.483,1.4863,1.4863,1.4862,1.4861,1.4968,1.4973,1.4978,1.5023,0,0,1.4993,1.4995,0,0,0,0,0,0,0,0,1.4634,1.4645,1.4748,1.4752,1.4756,1.4831,1.4808,1.4895,1.4863,1.4823,1.4862,1.4861,1.4925,1.4933,1.4955,1.5028,1.5033,1.4994,1.4997,1.4999,1.5,0,0,0,0,0,0,0,1.4628,1.4641,1.4764,1.4749,1.4754,1.4763,1.4775,1.4825,1.4877,1.4827,1.4829,1.4841,1.4927,1.495,1.4957,1.5034,1.4994,1.4998,1.5001,1.5003,1.515,1.5151,0,0,0,0,0,0,1.4617,1.4636,1.476,1.4767,1.4692,1.4767,1.478,1.4808,1.4876,1.4886,1.4842,1.4842,1.4941,1.4952,1.4961,1.5018,1.4999,1.5004,1.5006,1.5149,1.515,1.5151,0,0,0,0,0,0,1.4613,1.4627,1.4756,1.4702,1.4719,1.4771,1.4802,1.481,1.4833,1.4888,1.4897,1.4855,1.4941,1.4954,1.5007,1.5023,1.5006,1.501,1.5148,1.5149,1.5151,1.5133,0,0,0,0,0,0,1.4608,1.4626,1.4643,1.4702,1.4722,1.48,1.4803,1.4813,1.4841,1.4843,1.4903,1.4912,1.4942,1.5,1.5012,1.5029,1.5014,1.5147,1.5149,1.515,1.5132,1.5133,1.5134,0,0,0,0,0,1.4602,1.4634,1.4644,1.4659,1.4744,1.48,1.4812,1.4845,1.4842,1.486,1.4895,1.491,1.5019,1.5005,1.5019,1.5038,1.5146,1.5148,1.515,1.5132,1.5133,1.5134,0,0,0,0,0,0,1.4576,1.4642,1.4654,1.4706,1.4747,1.4806,1.483,1.4845,1.4888,1.4888,1.4928,1.4941,1.4991,1.502,1.5003,1.5085,1.5083,1.5088,1.5064,1.5066,1.5067,1.5059,1.5018,0,0,0,0,0,1.4576,1.4616,1.4672,1.4713,1.4733,1.4778,1.4803,1.4825,1.487,1.4887,1.4926,1.4969,1.5013,1.5041,1.5085,1.5137,1.515,1.5157,1.5158,1.5158,1.5162,1.5191,1.5195,1.5158,1.5158,1.5158,0,0,1.4578,1.4619,1.4642,1.4709,1.4743,1.4784,1.4792,1.4835,1.4865,1.4894,1.4946,1.4976,1.5027,1.5079,1.5104,1.5105,1.5175,1.5161,1.5161,1.5164,1.5194,1.5197,1.52,1.5159,1.5159,1.5159,0,0,1.4601,1.4636,1.4674,1.4708,1.476,1.4789,1.4798,1.4855,1.4875,1.4928,1.4951,1.4988,1.5063,1.5098,1.5125,1.5162,1.5177,1.5175,1.518,1.5208,1.5211,1.5214,1.5227,1.5231,1.5178,1.5178,1.5178,0,1.4596,1.4657,1.4691,1.4732,1.4761,1.4789,1.4828,1.486,1.4923,1.4943,1.4942,1.5036,1.5073,1.5133,1.5142,1.5164,1.5175,1.5168,1.5208,1.5211,1.5214,1.5227,1.5231,1.5178,1.5178,1.5178,1.5178,0,1.4649,1.4691,1.4715,1.4775,1.4807,1.4847,1.4887,1.4916,1.4935,1.4964,1.5018,1.5062,1.5115,1.5131,1.515,1.5195,1.5193,1.52,1.5199,1.5216,1.5229,1.5234,1.5177,1.5177,1.5177,1.5177,0,0,1.4658,1.4736,1.4745,1.4772,1.4831,1.4865,1.4906,1.4957,1.498,1.5023,1.5059,1.5121,1.5128,1.5159,1.5183,1.5208,1.5233,1.5211,1.5213,1.5213,1.5284,1.5279,1.5284,1.5243,1.5245,1.5245,1.528,0,1.4688,1.4762,1.4794,1.4854,1.4893,1.492,1.4956,1.4996,1.5025,1.5063,1.5096,1.5139,1.5144,1.5163,1.5189,1.5224,1.5248,1.5222,1.5277,1.5279,1.5263,1.529,1.5285,1.5315,1.5285,1.5286,1.5287,0,1.4734,1.4776,1.4839,1.4893,1.4911,1.4943,1.4992,1.5028,1.5075,1.5094,1.5129,1.5151,1.5196,1.5192,1.5254,1.5236,1.526,1.5281,1.5283,1.5289,1.5283,1.5297,1.5326,1.533,1.5295,1.5294,1.5294,0,1.4734,1.4807,1.4854,1.4877,1.4941,1.4963,1.4991,1.5037,1.5065,1.5109,1.5128,1.5176,1.5202,1.5239,1.5274,1.5268,1.5333,1.5332,1.535,1.5349,1.5362,1.5361,1.5395,1.5378,1.5378,1.5378,1.5378,0,1.4764,1.4801,1.4855,1.4884,1.4927,1.4964,1.5005,1.5035,1.5076,1.5111,1.5138,1.5171,1.5215,1.5254,1.5282,1.5329,1.5341,1.5358,1.5365,1.5355,1.5353,1.5371,1.537,1.538,1.5379,1.5379,1.5379,0,1.4771,1.4808,1.4861,1.4918,1.4933,1.4963,1.5011,1.5041,1.5071,1.5116,1.5128,1.5176,1.5223,1.5261,1.5323,1.5342,1.5391,1.5399,1.5375,1.5378,1.5394,1.5392,1.5441,1.545,1.5427,1.5428,1.5428,0,1.4788,1.4817,1.4877,1.4902,1.493,1.4971,1.5,1.5037,1.5067,1.5122,1.5144,1.5193,1.5234,1.5308,1.5348,1.5396,1.5405,1.5419,1.5412,1.5402,1.5405,1.5402,1.5405,1.5419,1.5419,1.5419,1.5419,0,1.4813,1.483,1.4871,1.4918,1.4952,1.4991,1.5031,1.505,1.5095,1.5127,1.5175,1.5206,1.5269,1.5317,1.5369,1.5398,1.5416,1.5421,1.5428,1.5418,1.5403,1.5411,1.5376,1.542,1.542,1.542,1.542,1.542,1.4825,1.4853,1.4899,1.4943,1.4977,1.5014,1.5044,1.5078,1.5118,1.5172,1.5192,1.5241,1.5287,1.5358,1.5388,1.5427,1.5429,1.5439,1.5441,1.5443,1.5441,1.5397,1.5436,1.5437,1.5437,1.5437,1.5437,0,1.4852,1.4883,1.4923,1.4978,1.5013,1.5027,1.5071,1.51,1.5143,1.5184,1.5223,1.5278,1.5325,1.5369,1.5418,1.5441,1.5451,1.5453,1.5451,1.5458,1.5437,1.5426,1.5444,1.5444,1.5444,1.5444,1.5444,1.5444,1.487,1.4916,1.4939,1.5003,1.5034,1.5082,1.5106,1.514,1.5173,1.5233,1.5272,1.53,1.5343,1.5395,1.5438,1.545,1.5467,1.5467,1.5481,1.546,1.5459,1.5458,1.5448,1.547,1.547,1.5498,1.5498,1.5498]},{"header":{"parameterUnit":"m.s-1","parameterCategory":1,"la1":30.2991,"la2":30.254,"lo1":-89.0895,"lo2":-89.0444,"dy":0.0017,"dx":0.0017,"nx":28,"ny":28,"refTime":"2025-03-11T21:00:00:Z","depth":0,"parameterNumber":3,"parameterNumberName":"V-component_of_WINDS"},"data":[0,0,0,0,0,0,0,0,0,0,0,0,0,0,0,0,0,0,0,0,0,0,0,0,0,0,0,0,0,0,0,0,0,0,0,0,0,0,0,0,0,0,0,0,0,0,0,0,0,0,0,0,0,0,0,0,0,0,3.6611,3.6612,0,3.668,3.6681,3.6682,3.6693,3.6692,3.6692,3.6691,3.6758,3.676,3.6763,0,0,0,0,0,0,0,0,0,0,0,0,0,3.6486,3.6488,3.6611,3.6612,3.6613,3.668,3.6681,3.6682,3.6693,3.6692,3.6692,3.6691,3.6757,3.676,3.6763,0,0,0,0,0,0,0,0,0,0,0,0,0,3.6546,3.6489,3.6611,3.6626,3.6629,3.668,3.6681,3.6682,3.6693,3.6692,3.6692,3.6691,3.6757,3.676,3.6763,3.6803,0,0,3.6774,3.6776,0,0,0,0,0,0,0,0,3.6542,3.655,3.6623,3.6626,3.6628,3.6677,3.6661,3.6722,3.6694,3.6669,3.6691,3.669,3.6732,3.6737,3.6752,3.6806,3.6809,3.6774,3.6776,3.6778,3.6779,0,0,0,0,0,0,0,3.6538,3.6548,3.6638,3.6624,3.6627,3.6629,3.6637,3.6673,3.6704,3.6671,3.6672,3.668,3.6733,3.6749,3.6754,3.6809,3.6774,3.6777,3.6779,3.6781,3.69,3.6901,0,0,0,0,0,0,3.6532,3.6544,3.6636,3.664,3.6582,3.6632,3.6641,3.6662,3.6704,3.6709,3.6681,3.668,3.6743,3.6749,3.6756,3.6806,3.6778,3.6781,3.6783,3.6899,3.69,3.6901,0,0,0,0,0,0,3.6529,3.654,3.6633,3.6593,3.6605,3.6635,3.6659,3.6664,3.668,3.6711,3.6717,3.6691,3.6743,3.6751,3.6791,3.6808,3.6783,3.6786,3.6898,3.6899,3.6901,3.6904,0,0,0,0,0,0,3.6525,3.6539,3.6555,3.6593,3.6607,3.6668,3.666,3.6666,3.6686,3.6687,3.6723,3.6728,3.6743,3.6786,3.6795,3.6812,3.6789,3.6896,3.6898,3.69,3.6903,3.6906,3.6908,0,0,0,0,0,3.6521,3.6552,3.6555,3.6566,3.6627,3.6669,3.6677,3.6695,3.6688,3.6704,3.6724,3.6727,3.6805,3.679,3.68,3.6819,3.6895,3.6898,3.69,3.6902,3.6905,3.6908,0,0,0,0,0,0,3.6513,3.6557,3.6561,3.6606,3.6634,3.6671,3.6692,3.6698,3.6727,3.6726,3.6745,3.6753,3.6793,3.681,3.6793,3.686,3.6849,3.6854,3.6847,3.6851,3.6854,3.6849,3.6792,0,0,0,0,0,3.6516,3.6548,3.6584,3.662,3.6634,3.666,3.6679,3.6691,3.672,3.6731,3.6755,3.6782,3.6813,3.6833,3.6863,3.6905,3.6914,3.6923,3.6926,3.6928,3.6932,3.6957,3.6961,3.6909,3.6909,3.6909,0,0,3.6523,3.6552,3.657,3.6619,3.6642,3.6674,3.667,3.6703,3.6727,3.6736,3.6776,3.6794,3.6826,3.6868,3.6888,3.6884,3.6948,3.6931,3.6933,3.6935,3.6959,3.6964,3.6969,3.6911,3.6911,3.691,0,0,3.6553,3.6577,3.661,3.6634,3.667,3.6688,3.6696,3.6733,3.6746,3.6787,3.6795,3.6822,3.6875,3.6898,3.6916,3.6956,3.696,3.6965,3.6979,3.7003,3.7008,3.7011,3.7026,3.7031,3.6969,3.6969,3.6969,0,3.6557,3.6606,3.6626,3.666,3.6681,3.6693,3.6726,3.6748,3.6791,3.6805,3.68,3.6868,3.689,3.6938,3.6948,3.6962,3.6971,3.6961,3.7006,3.701,3.7013,3.7028,3.7033,3.6969,3.6969,3.6969,3.6969,0,3.661,3.6644,3.6666,3.671,3.6734,3.6767,3.6791,3.6813,3.6822,3.684,3.6882,3.6909,3.6946,3.6958,3.6966,3.7007,3.7004,3.7002,3.6992,3.7018,3.7032,3.7038,3.697,3.697,3.6969,3.6969,0,0,3.6635,3.6691,3.6699,3.672,3.6761,3.6787,3.6821,3.6858,3.6876,3.6906,3.6935,3.698,3.6979,3.7,3.7011,3.7032,3.7063,3.7028,3.7029,3.7034,3.7111,3.7112,3.7118,3.7066,3.7067,3.7068,3.7108,0,3.667,3.6733,3.6752,3.6804,3.6836,3.6848,3.6878,3.6906,3.6924,3.6952,3.6972,3.7004,3.7,3.7013,3.7034,3.7055,3.7079,3.7052,3.7092,3.7094,3.7085,3.7125,3.7127,3.7163,3.7114,3.7115,3.7115,0,3.6719,3.6752,3.6808,3.6846,3.686,3.6887,3.6923,3.6951,3.6983,3.6994,3.7019,3.7029,3.7064,3.7053,3.7101,3.7083,3.71,3.7113,3.7115,3.712,3.7106,3.7131,3.7175,3.7181,3.7124,3.7123,3.7122,0,3.6733,3.6791,3.6832,3.6849,3.6895,3.6913,3.6933,3.6964,3.6986,3.7017,3.7032,3.7066,3.7085,3.7111,3.713,3.7119,3.7177,3.7167,3.7187,3.7187,3.7199,3.7198,3.7247,3.721,3.7209,3.7209,3.7209,0,3.677,3.6804,3.6839,3.6864,3.6903,3.6924,3.6961,3.6981,3.7009,3.7038,3.705,3.7077,3.71,3.713,3.7144,3.7183,3.7191,3.7201,3.7205,3.72,3.7199,3.7212,3.721,3.7211,3.7211,3.721,3.721,0,3.6792,3.6817,3.6863,3.6904,3.6914,3.6941,3.6975,3.7,3.7019,3.7055,3.7065,3.7094,3.713,3.7152,3.7196,3.7206,3.7249,3.7251,3.7238,3.724,3.726,3.7258,3.7319,3.7329,3.7284,3.7285,3.7285,0,3.6814,3.6841,3.6885,3.6906,3.6927,3.696,3.6983,3.7006,3.7029,3.7068,3.7088,3.7125,3.7156,3.7212,3.7236,3.727,3.7274,3.7293,3.7279,3.7274,3.7275,3.7273,3.7276,3.7295,3.7296,3.7296,3.7296,0,3.6851,3.6863,3.6896,3.6935,3.6962,3.6992,3.7023,3.7039,3.7067,3.7092,3.7129,3.7153,3.72,3.7236,3.7273,3.7292,3.7299,3.7301,3.7307,3.7303,3.7295,3.7301,3.7245,3.7299,3.7299,3.7299,3.7298,3.7298,3.6875,3.6899,3.6935,3.6972,3.6998,3.7026,3.7052,3.7075,3.7108,3.7149,3.7159,3.7199,3.7231,3.7281,3.7301,3.7332,3.7329,3.7338,3.7341,3.7343,3.7344,3.7291,3.7339,3.7339,3.7339,3.7338,3.7338,0,3.6913,3.6937,3.6971,3.7014,3.7043,3.7049,3.7083,3.7107,3.7142,3.7172,3.7203,3.7247,3.7282,3.731,3.7347,3.7366,3.737,3.7375,3.7374,3.7378,3.7344,3.7335,3.7371,3.7371,3.7371,3.7371,3.7371,3.7371,3.6936,3.6979,3.6995,3.7051,3.7074,3.7114,3.7134,3.716,3.7184,3.7233,3.7264,3.7282,3.7312,3.7351,3.7384,3.7391,3.7404,3.7408,3.7416,3.7384,3.738,3.7377,3.7369,3.7411,3.7411,3.7448,3.7448,3.7448]}]]